sat.trackr.live / text

‹ back to catalog

STARLINK-32811

NORAD 63039 · 2025-034L

PAYLOAD ACTIVE UNKNOWN

§ Identity

Operator
Country
US
Launch date
2025-02-18
Launch site
AFETR
Launch vehicle
Mass (kg)
RCS (m²)

Purposes: comms

External: N2YO · Heavens-Above · Gunter

§ Orbital elements

Epoch: 2026-05-25T04:00:03.998880Z

Period
94.11 min
Inclination
53.1580°
Eccentricity
0.0001118
Mean motion
15.30175120 rev/d
Perigee alt
474.5 km
Apogee alt
476.1 km
Semi-major
6,853.4 km
B*
2.3261e-3
RAAN
263.0297°
Arg perigee
97.6268°
Mean anomaly
272.3384°
Rev number
586

§ Raw data

STARLINK-328111 63039U 25034L   26145.16671295  .00069123  00000+0  23261-2 0  99962 63039  53.1580 263.0297 0001118  97.6268 272.3384 15.30175120  5866

JSON: /api/v1/satellites/63039 · /tle

For live sub-satellite position, see the globe view (requires WebGL).

§ Visibility from observer

Set your observer location to see the next 7 days of passes ≥ 10°. The values pass through the URL so the page stays shareable.

No JS? Fill the form by hand. The geolocation button needs JavaScript.